{"data":{"norad_id":68574,"epoch":"2026-05-24T18:39:42.089472Z","epoch_age_seconds":93939,"freshness":"FRESH","line1":"1 68574U 26072B   26144.77757048  .00001864  00000+0  29677-3 0  9991","line2":"2 68574  51.8985 301.1914 0000818 225.6024 134.4870 14.76318651  7629","mean_motion":14.76318651,"eccentricity":8.18e-5,"inclination_deg":51.8985,"raan_deg":301.1914,"arg_perigee_deg":225.6024,"mean_anomaly_deg":134.487,"bstar":0.00029677,"rev_number":762,"period_min":97.539917891344,"perigee_km":640.39434183256,"apogee_km":641.54266749312,"semimajor_km":7019.1055046628,"source":"CELESTRAK","updated_at":"2026-05-25T13:38:07.922388Z"}}